TimeCDT,TemperatureF,Dew PointF,Humidity,Sea Level PressureIn,VisibilityMPH,Wind Direction,Wind SpeedMPH,Gust SpeedMPH,PrecipitationIn,Events,Conditions,WindDirDegrees,DateUTC
12:15 AM,62.6,54.1,74,30.04,10.0,ESE,4.6,-,N/A,,Overcast,120,2012-10-04 05:15:00
12:35 AM,61.7,54.5,77,30.04,10.0,ESE,4.6,-,N/A,,Overcast,120,2012-10-04 05:35:00
12:55 AM,60.4,54.5,81,30.04,10.0,SE,3.5,-,N/A,,Overcast,140,2012-10-04 05:55:00
1:15 AM,61.3,53.8,76,30.04,10.0,ESE,3.5,-,N/A,,Mostly Cloudy,120,2012-10-04 06:15:00
1:35 AM,60.8,53.1,76,30.04,10.0,ESE,4.6,-,N/A,,Clear,120,2012-10-04 06:35:00
1:55 AM,60.3,53.1,77,30.04,10.0,ESE,4.6,-,N/A,,Clear,120,2012-10-04 06:55:00
2:15 AM,59.0,53.1,81,30.04,10.0,ESE,4.6,-,N/A,,Clear,120,2012-10-04 07:15:00
2:35 AM,58.5,52.9,82,30.04,10.0,ESE,4.6,-,N/A,,Clear,120,2012-10-04 07:35:00
2:55 AM,58.5,52.2,80,30.04,10.0,ESE,3.5,-,N/A,,Clear,120,2012-10-04 07:55:00
3:15 AM,56.8,51.8,83,30.04,10.0,SE,4.6,-,N/A,,Clear,130,2012-10-04 08:15:00
3:35 AM,57.2,51.8,82,30.04,10.0,ESE,3.5,-,N/A,,Clear,120,2012-10-04 08:35:00
3:55 AM,56.3,51.8,85,30.04,10.0,SE,4.6,-,N/A,,Scattered Clouds,130,2012-10-04 08:55:00
4:15 AM,56.8,52.2,84,30.04,10.0,SE,5.8,-,N/A,,Clear,130,2012-10-04 09:15:00
4:35 AM,57.6,52.7,84,30.04,10.0,SE,3.5,-,N/A,,Clear,130,2012-10-04 09:35:00
4:55 AM,57.4,52.5,84,30.04,10.0,SE,4.6,-,N/A,,Clear,130,2012-10-04 09:55:00
5:15 AM,57.4,52.9,85,30.04,10.0,SE,5.8,-,N/A,,Clear,130,2012-10-04 10:15:00
5:35 AM,57.2,52.9,85,30.05,10.0,SE,3.5,-,N/A,,Clear,140,2012-10-04 10:35:00
5:55 AM,57.2,53.2,87,30.05,10.0,SE,4.6,-,N/A,,Clear,130,2012-10-04 10:55:00
6:15 AM,56.7,53.1,88,30.05,10.0,SE,4.6,-,N/A,,Clear,130,2012-10-04 11:15:00
6:35 AM,56.7,53.2,88,30.05,10.0,SE,4.6,-,N/A,,Clear,130,2012-10-04 11:35:00
6:55 AM,56.5,53.6,90,30.05,10.0,SE,4.6,-,N/A,,Clear,140,2012-10-04 11:55:00
7:15 AM,56.7,53.6,89,30.05,10.0,SE,3.5,-,N/A,,Clear,140,2012-10-04 12:15:00
7:35 AM,57.9,54.9,90,30.05,10.0,SSE,4.6,-,N/A,,Clear,150,2012-10-04 12:35:00
7:55 AM,59.7,55.8,87,30.05,10.0,South,4.6,-,N/A,,Clear,170,2012-10-04 12:55:00
8:15 AM,61.3,56.8,85,30.05,10.0,South,4.6,-,N/A,,Clear,180,2012-10-04 13:15:00
8:35 AM,63.3,57.6,81,30.05,10.0,South,5.8,-,N/A,,Clear,180,2012-10-04 13:35:00
8:55 AM,64.6,57.6,78,30.05,10.0,South,9.2,-,N/A,,Clear,180,2012-10-04 13:55:00
9:15 AM,66.0,58.1,76,30.04,10.0,South,10.4,-,N/A,,Scattered Clouds,180,2012-10-04 14:15:00
9:35 AM,67.5,57.9,71,30.04,10.0,South,11.5,-,N/A,,Clear,190,2012-10-04 14:35:00
9:55 AM,68.0,58.1,71,30.05,10.0,SSW,13.8,17.3,N/A,,Clear,200,2012-10-04 14:55:00
10:15 AM,68.9,58.6,70,30.05,10.0,South,10.4,-,N/A,,Clear,180,2012-10-04 15:15:00
10:35 AM,70.9,58.8,66,30.04,10.0,South,11.5,-,N/A,,Clear,180,2012-10-04 15:35:00
10:55 AM,72.0,58.8,63,30.04,10.0,South,12.7,17.3,N/A,,Clear,190,2012-10-04 15:55:00
11:15 AM,73.4,59.0,61,30.03,10.0,South,8.1,-,N/A,,Clear,190,2012-10-04 16:15:00
11:35 AM,73.6,59.2,61,30.03,10.0,South,11.5,-,N/A,,Clear,190,2012-10-04 16:35:00
11:55 AM,72.9,58.8,61,30.04,10.0,SSW,9.2,16.1,N/A,,Clear,200,2012-10-04 16:55:00
12:15 PM,75.7,57.9,54,30.04,10.0,SW,8.1,-,N/A,,Clear,220,2012-10-04 17:15:00
12:35 PM,76.5,56.8,51,30.04,10.0,SW,13.8,18.4,N/A,,Clear,220,2012-10-04 17:35:00
12:55 PM,75.6,57.2,53,30.04,10.0,SW,13.8,19.6,N/A,,Clear,220,2012-10-04 17:55:00
1:15 PM,76.3,57.2,52,30.05,10.0,SW,12.7,17.3,N/A,,Clear,220,2012-10-04 18:15:00
1:35 PM,75.6,56.3,51,30.05,10.0,SW,15.0,19.6,N/A,,Scattered Clouds,230,2012-10-04 18:35:00
1:55 PM,74.1,56.3,54,30.04,10.0,WSW,8.1,18.4,N/A,,Mostly Cloudy,250,2012-10-04 18:55:00
2:15 PM,71.2,58.3,64,30.05,7.0,WSW,11.5,16.1,N/A,Rain,Rain,250,2012-10-04 19:15:00
2:35 PM,66.0,54.3,66,30.07,10.0,West,11.5,21.9,N/A,,Scattered Clouds,260,2012-10-04 19:35:00
2:55 PM,65.5,53.4,65,30.08,10.0,West,10.4,-,N/A,,Scattered Clouds,270,2012-10-04 19:55:00
3:15 PM,65.5,52.0,62,30.08,10.0,West,9.2,16.1,N/A,,Scattered Clouds,270,2012-10-04 20:15:00
3:35 PM,64.6,50.4,60,30.09,10.0,West,12.7,20.7,N/A,,Scattered Clouds,270,2012-10-04 20:35:00
3:55 PM,64.4,50.0,59,30.09,10.0,West,12.7,16.1,N/A,,Mostly Cloudy,270,2012-10-04 20:55:00
4:15 PM,62.6,49.8,63,30.12,10.0,West,11.5,18.4,N/A,Rain,Light Rain,270,2012-10-04 21:15:00
4:35 PM,59.2,50.0,72,30.13,10.0,West,16.1,23.0,N/A,,Light Drizzle,280,2012-10-04 21:35:00
4:55 PM,55.6,50.5,83,30.12,7.0,West,4.6,-,0.01,Rain-Thunderstorm,Thunderstorms and Rain,280,2012-10-04 21:55:00
5:15 PM,54.0,51.4,91,30.09,3.0,WNW,6.9,-,0.05,Rain-Thunderstorm,Heavy Thunderstorms and Rain,300,2012-10-04 22:15:00
5:35 PM,53.8,51.8,93,30.12,4.0,WSW,4.6,-,0.14,Rain-Thunderstorm,Heavy Thunderstorms and Rain,250,2012-10-04 22:35:00
5:55 PM,53.4,51.4,93,30.14,4.0,West,9.2,-,0.27,Rain,Heavy Rain,260,2012-10-04 22:55:00
6:15 PM,53.1,50.9,92,30.14,5.0,West,6.9,-,0.04,Rain,Light Rain,260,2012-10-04 23:15:00
6:35 PM,53.4,50.7,91,30.13,10.0,WSW,5.8,-,0.04,Rain,Light Rain,240,2012-10-04 23:35:00
6:55 PM,53.4,50.7,91,30.14,7.0,WSW,3.5,-,0.06,Rain,Rain,240,2012-10-04 23:55:00
7:15 PM,53.2,50.5,91,30.13,7.0,West,4.6,-,0.01,Rain,Rain,280,2012-10-05 00:15:00
7:35 PM,53.2,50.2,89,30.14,10.0,SW,5.8,-,0.02,Rain,Light Rain,230,2012-10-05 00:35:00
7:55 PM,53.2,50.2,89,30.13,10.0,WSW,3.5,-,0.02,Rain,Light Rain,250,2012-10-05 00:55:00
8:15 PM,53.1,50.0,89,30.14,10.0,SW,4.6,-,N/A,,Overcast,230,2012-10-05 01:15:00
8:35 PM,53.2,49.8,88,30.14,10.0,WSW,4.6,-,N/A,,Overcast,240,2012-10-05 01:35:00
8:55 PM,53.2,49.5,87,30.14,10.0,WSW,4.6,-,N/A,,Overcast,250,2012-10-05 01:55:00
9:15 PM,53.1,49.1,86,30.15,10.0,West,6.9,-,N/A,,Overcast,260,2012-10-05 02:15:00
9:35 PM,52.7,49.1,88,30.15,10.0,West,5.8,-,N/A,,Mostly Cloudy,260,2012-10-05 02:35:00
9:55 PM,51.8,48.4,88,30.16,10.0,WSW,5.8,-,N/A,Thunderstorm,Mostly Cloudy,250,2012-10-05 02:55:00
10:15 PM,51.8,48.2,88,30.16,10.0,WSW,4.6,-,N/A,,Mostly Cloudy,250,2012-10-05 03:15:00
10:35 PM,50.9,47.7,89,30.17,10.0,West,4.6,-,N/A,,Mostly Cloudy,260,2012-10-05 03:35:00
10:55 PM,50.5,47.5,89,30.17,10.0,West,4.6,-,N/A,,Scattered Clouds,260,2012-10-05 03:55:00
11:15 PM,50.0,46.8,89,30.16,10.0,West,3.5,-,N/A,,Clear,260,2012-10-05 04:15:00
11:35 PM,50.0,46.4,87,30.16,10.0,WSW,3.5,-,N/A,,Clear,250,2012-10-05 04:35:00
11:55 PM,49.5,46.0,88,30.16,10.0,WSW,3.5,-,N/A,,Clear,250,2012-10-05 04:55:00